FENGYUN 1C DEB

Satellite information

Favourite Embed

Satellite Type and Status

DEBRISIN ORBIT

Key statistics

Satellite FENGYUN 1C DEB at a glance.

Uptime

9555

Days in orbit

Revolutions

≈ 14.0

Per day

Orbit

SSO

Sun Synchronous Orbit

Inclination

98.4

Latest

Satellite identification and parameters

Extended collection of information and parameters for FENGYUN 1C DEB.

Object identification

Identified? True

Debris? True

Object name: FENGYUN 1C DEB

International designator: 1999-025BN

Object number (NORAD): 29772

Object ID (CCSDS): 29772

Country: PEOPLES REPUBLIC OF CHINA (PRC)

Current information (Y/N): Y

RCS size: SMALL

Orbital parameters

Period: 102.665 minutes

Inclination: 98.4061 deg

SMA: 7262.855 km

Apoapsis: 986.489 km

Periapsis: 782.951 km

RAAN: 48.1463 deg

Eccentricy: 0.0140123

Argument of periapsis: 22.951 deg

Mean anomaly: 42.1524 deg

Mean motion: 14.02625457 rev/day

Mean motion (dot): 0.00001181 rev/day2

B* drag term: 0.00072572 1/REarth

Two-line elements (TLE)

Creation date: July 5, 2025, 11:06 p.m.

Reference frame: TEME

Reference center: EARTH

Epoch: July 5, 2025, 2:47 p.m. UTC

TLE line 0: 0 FENGYUN 1C DEB

TLE line 1: 1 29772U 99025BN 25186.61639326 .00001181 00000-0 72572-3 0 9997

TLE line 2: 2 29772 98.4061 48.1463 0140123 22.9510 42.1524 14.02625457940404

Live tracking on map

Real-time ground track for satellite FENGYUN 1C DEB.

In-orbit conjunctions

A list of the most updated potential collisions computed for object FENGYUN 1C DEB.

Target Orbit TCA Probability of collision Miss distance Type
FENGYUN 1C DEB SSO 2025-02-11 19:23:11 0.0001345539 103.0 (m) DEBRIS
CZ-6A DEB LEO 2024-09-17 15:19:22 0.0006997968 178.0 (m) DEBRIS
COSMOS 2074 LEO 2024-07-25 06:26:26 0.0001824981 256.0 (m) PAYLOAD

Associated space launch

Chinese polar orbiting meteorological satellite

FENGYUN 1C DEB was lifted into orbit during the mission ‘Long March 4B | Feng Yun 1C’, on board a Long March 4B space rocket.

The launch took place on May 10, 1999, 1:33 a.m. from Launch Complex 7.

For more information about the launch, click the button.

Launch to space Long March 4B | Feng Yun 1C
Long March 4B | Feng Yun 1C

Agency: N/A

Status: Launch Successful

Launch date: May 10, 1999, 1:33 a.m. UTC

Rocket: Long March 4B

Launch pad: Launch Complex 7

Location: Taiyuan Satellite Launch Center, People's Republic of China

...

Latest news about this satellite

There are no fresh news available about this satellite. Check back as we update our databases every day.


Newsletter sign-up

Weekly statistics, charts and insights to help you stay on top of the space industry.